Time,TemperatureF,DewpointF,PressureIn,WindDirection,WindDirectionDegrees,WindSpeedMPH,WindSpeedGustMPH,Humidity,HourlyPrecipIn,Conditions,Clouds,dailyrainin,SoftwareType,DateUTC
2013-04-24 00:02:00,38.0,30.0,29.93,NNW,340,3.0,9.0,73,0.00,,,0.27,,2013-04-24 05:02:00,
2013-04-24 00:12:00,38.0,30.0,29.93,NNW,340,3.0,9.0,73,0.00,,,0.27,,2013-04-24 05:12:00,
2013-04-24 00:22:00,38.0,30.0,29.93,NNW,340,3.0,9.0,73,0.00,,,0.27,,2013-04-24 05:22:00,
2013-04-24 00:32:00,38.0,30.0,29.93,NNW,340,3.0,9.0,73,0.00,,,0.27,,2013-04-24 05:32:00,
2013-04-24 00:52:00,38.0,29.0,29.94,North,360,3.0,6.0,71,0.00,,,0.27,,2013-04-24 05:52:00,
2013-04-24 01:02:00,38.0,29.0,29.94,North,360,3.0,6.0,71,0.00,,,0.27,,2013-04-24 06:02:00,
2013-04-24 01:12:00,38.0,29.0,29.94,North,360,3.0,6.0,71,0.00,,,0.27,,2013-04-24 06:12:00,
2013-04-24 01:21:00,37.0,29.0,29.94,North,350,4.0,7.0,72,0.00,,,0.27,,2013-04-24 06:21:00,
2013-04-24 01:32:00,37.0,28.0,29.95,NNE,23,3.0,7.0,71,0.00,,,0.27,,2013-04-24 06:32:00,
2013-04-24 01:42:00,37.0,28.0,29.95,NNE,23,3.0,7.0,71,0.00,,,0.27,,2013-04-24 06:42:00,
2013-04-24 01:51:00,37.0,29.0,29.96,North,355,0.0,5.0,72,0.00,,,0.27,,2013-04-24 06:51:00,
2013-04-24 02:02:00,37.0,29.0,29.96,North,355,3.0,4.0,72,0.00,,,0.27,,2013-04-24 07:02:00,
2013-04-24 02:11:00,37.0,29.0,29.96,North,355,3.0,4.0,72,0.00,,,0.27,,2013-04-24 07:11:00,
2013-04-24 02:22:00,37.0,29.0,29.95,North,355,2.0,6.0,72,0.00,,,0.27,,2013-04-24 07:22:00,
2013-04-24 02:32:00,36.0,28.0,29.95,NNW,346,3.0,4.0,72,0.00,,,0.27,,2013-04-24 07:32:00,
2013-04-24 02:42:00,36.0,28.0,29.95,NNW,346,3.0,4.0,72,0.00,,,0.27,,2013-04-24 07:42:00,
2013-04-24 02:52:00,36.0,28.0,29.95,NNE,32,0.0,6.0,73,0.00,,,0.27,,2013-04-24 07:52:00,
2013-04-24 03:02:00,36.0,28.0,29.94,North,360,4.0,6.0,73,0.00,,,0.27,,2013-04-24 08:02:00,
2013-04-24 03:12:00,36.0,28.0,29.94,North,360,4.0,6.0,73,0.00,,,0.27,,2013-04-24 08:12:00,
2013-04-24 03:21:00,36.0,28.0,29.94,North,355,2.0,6.0,73,0.00,,,0.27,,2013-04-24 08:21:00,
2013-04-24 03:33:00,36.0,28.0,29.94,North,355,2.0,6.0,73,0.00,,,0.27,,2013-04-24 08:33:00,
2013-04-24 03:42:00,36.0,28.0,29.94,North,355,2.0,6.0,73,0.00,,,0.27,,2013-04-24 08:42:00,
2013-04-24 03:52:00,36.0,28.0,29.92,NNE,23,1.0,7.0,72,0.00,,,0.27,,2013-04-24 08:52:00,
2013-04-24 04:00:00,35.0,27.0,29.94,NNW,347,3.0,4.0,73,0.00,,,0.27,,2013-04-24 09:00:00,
2013-04-24 04:01:00,35.0,27.0,29.94,NNE,24,2.0,6.0,72,0.00,,,0.27,,2013-04-24 09:01:00,
2013-04-24 04:11:00,35.0,27.0,29.94,NNE,24,2.0,6.0,72,0.00,,,0.27,,2013-04-24 09:11:00,
2013-04-24 04:21:00,35.0,27.0,29.94,NNW,347,3.0,4.0,73,0.00,,,0.27,,2013-04-24 09:21:00,
2013-04-24 04:33:00,35.0,27.0,29.94,NNW,347,3.0,4.0,73,0.00,,,0.27,,2013-04-24 09:33:00,
2013-04-24 04:42:00,35.0,27.0,29.94,NNW,347,3.0,4.0,73,0.00,,,0.27,,2013-04-24 09:42:00,
2013-04-24 04:53:00,35.0,27.0,29.94,NNW,347,3.0,4.0,73,0.00,,,0.27,,2013-04-24 09:53:00,
2013-04-24 05:22:00,34.0,27.0,29.94,NW,304,1.0,3.0,76,0.00,,,0.27,,2013-04-24 10:22:00,
2013-04-24 05:32:00,34.0,27.0,29.94,NW,304,1.0,3.0,76,0.00,,,0.27,,2013-04-24 10:32:00,
2013-04-24 05:42:00,34.0,27.0,29.94,NW,304,1.0,3.0,76,0.00,,,0.27,,2013-04-24 10:42:00,
2013-04-24 05:52:00,34.0,26.0,29.96,NNW,348,1.0,5.0,73,0.00,,,0.27,,2013-04-24 10:52:00,
2013-04-24 06:02:00,34.0,26.0,29.97,NE,45,2.0,2.0,72,0.00,,,0.27,,2013-04-24 11:02:00,
2013-04-24 06:11:00,34.0,26.0,29.97,NE,45,2.0,2.0,72,0.00,,,0.27,,2013-04-24 11:11:00,
2013-04-24 06:21:00,34.0,26.0,29.97,NE,45,0.0,1.0,73,0.00,,,0.27,,2013-04-24 11:21:00,
2013-04-24 06:32:00,34.0,26.0,29.96,NE,42,0.0,3.0,73,0.00,,,0.27,,2013-04-24 11:32:00,
2013-04-24 06:42:00,34.0,26.0,29.96,NE,42,0.0,3.0,73,0.00,,,0.27,,2013-04-24 11:42:00,
2013-04-24 06:52:00,33.0,25.0,29.96,North,355,1.0,2.0,73,0.00,,,0.27,,2013-04-24 11:52:00,
2013-04-24 07:02:00,33.0,25.0,29.96,North,355,1.0,2.0,73,0.00,,,0.27,,2013-04-24 12:02:00,
2013-04-24 07:11:00,33.0,25.0,29.96,North,355,1.0,2.0,73,0.00,,,0.27,,2013-04-24 12:11:00,
2013-04-24 07:22:00,34.0,26.0,29.98,North,350,1.0,3.0,73,0.00,,,0.27,,2013-04-24 12:22:00,
2013-04-24 07:32:00,34.0,26.0,29.98,North,350,1.0,3.0,73,0.00,,,0.27,,2013-04-24 12:32:00,
2013-04-24 07:42:00,34.0,26.0,29.98,North,350,1.0,3.0,73,0.00,,,0.27,,2013-04-24 12:42:00,
2013-04-24 07:51:00,34.0,26.0,29.99,NW,319,3.0,4.0,71,0.00,,,0.27,,2013-04-24 12:51:00,
2013-04-24 08:01:00,34.0,25.0,29.99,North,355,2.0,3.0,69,0.00,,,0.27,,2013-04-24 13:01:00,
2013-04-24 08:12:00,34.0,25.0,29.99,North,355,2.0,3.0,69,0.00,,,0.27,,2013-04-24 13:12:00,
2013-04-24 08:22:00,35.0,26.0,29.99,NW,307,3.0,6.0,70,0.00,,,0.27,,2013-04-24 13:22:00,
2013-04-24 08:31:00,35.0,26.0,30.00,North,350,1.0,3.0,69,0.00,,,0.27,,2013-04-24 13:31:00,
2013-04-24 08:41:00,35.0,26.0,30.00,North,350,1.0,3.0,69,0.00,,,0.27,,2013-04-24 13:41:00,
2013-04-24 08:52:00,35.0,26.0,30.00,North,350,1.0,3.0,69,0.00,,,0.27,,2013-04-24 13:52:00,
2013-04-24 09:01:00,35.0,25.0,30.00,North,350,5.0,7.0,67,0.00,,,0.27,,2013-04-24 14:01:00,
2013-04-24 09:11:00,35.0,25.0,30.00,North,350,5.0,7.0,67,0.00,,,0.27,,2013-04-24 14:11:00,
2013-04-24 09:21:00,35.0,25.0,30.00,North,350,5.0,7.0,67,0.00,,,0.27,,2013-04-24 14:21:00,
2013-04-24 09:32:00,36.0,26.0,29.99,NNW,330,2.0,5.0,66,0.00,,,0.27,,2013-04-24 14:32:00,
2013-04-24 09:42:00,36.0,26.0,29.99,NNW,330,2.0,5.0,66,0.00,,,0.27,,2013-04-24 14:42:00,
2013-04-24 09:52:00,36.0,26.0,29.99,NNW,330,2.0,5.0,66,0.00,,,0.27,,2013-04-24 14:52:00,
2013-04-24 10:01:00,38.0,25.0,30.00,NNW,348,3.0,7.0,58,0.00,,,0.27,,2013-04-24 15:01:00,
2013-04-24 10:11:00,38.0,25.0,30.00,NNW,348,3.0,7.0,58,0.00,,,0.27,,2013-04-24 15:11:00,
2013-04-24 10:21:00,39.0,24.0,30.00,NW,324,3.0,8.0,55,0.00,,,0.27,,2013-04-24 15:21:00,
2013-04-24 10:33:00,39.0,24.0,30.00,NW,324,3.0,8.0,55,0.00,,,0.27,,2013-04-24 15:33:00,
2013-04-24 10:42:00,39.0,24.0,30.00,NW,324,3.0,8.0,55,0.00,,,0.27,,2013-04-24 15:42:00,
2013-04-24 10:52:00,40.0,24.0,30.01,North,355,3.0,10.0,52,0.00,,,0.27,,2013-04-24 15:52:00,
2013-04-24 11:03:00,40.0,19.0,30.01,North,360,3.0,10.0,43,0.00,,,0.27,,2013-04-24 16:03:00,
2013-04-24 11:12:00,40.0,19.0,30.01,North,360,3.0,10.0,43,0.00,,,0.27,,2013-04-24 16:12:00,
2013-04-24 11:23:00,41.0,21.0,30.01,NW,326,6.0,8.0,45,0.00,,,0.27,,2013-04-24 16:23:00,
2013-04-24 11:32:00,42.0,21.0,30.01,NW,316,3.0,8.0,42,0.00,,,0.27,,2013-04-24 16:32:00,
2013-04-24 11:42:00,43.0,23.0,30.01,NW,317,6.0,9.0,44,0.00,,,0.27,,2013-04-24 16:42:00,
2013-04-24 11:52:00,43.0,23.0,30.01,NW,317,6.0,9.0,44,0.00,,,0.27,,2013-04-24 16:52:00,
2013-04-24 12:02:00,43.0,23.0,30.01,NW,317,6.0,9.0,44,0.00,,,0.27,,2013-04-24 17:02:00,
2013-04-24 12:12:00,43.0,23.0,30.01,NW,317,6.0,9.0,44,0.00,,,0.27,,2013-04-24 17:12:00,
2013-04-24 12:22:00,44.0,21.0,30.00,NNW,348,3.0,10.0,39,0.00,,,0.26,,2013-04-24 17:22:00,
2013-04-24 12:32:00,44.0,21.0,30.00,NW,321,6.0,12.0,40,0.00,,,0.25,,2013-04-24 17:32:00,
2013-04-24 12:42:00,44.0,21.0,30.00,NW,321,6.0,12.0,40,0.00,,,0.25,,2013-04-24 17:42:00,
2013-04-24 12:51:00,44.0,21.0,30.00,NW,321,6.0,12.0,40,0.00,,,0.25,,2013-04-24 17:51:00,
2013-04-24 13:02:00,44.0,23.0,29.99,WNW,298,3.0,3.0,43,0.00,,,0.24,,2013-04-24 18:02:00,
2013-04-24 13:12:00,44.0,23.0,29.99,WNW,298,3.0,3.0,43,0.00,,,0.24,,2013-04-24 18:12:00,
2013-04-24 13:22:00,44.0,23.0,29.99,WNW,298,3.0,3.0,43,0.00,,,0.24,,2013-04-24 18:22:00,
2013-04-24 13:33:00,45.0,22.0,29.99,NNW,331,3.0,7.0,40,0.00,,,0.21,,2013-04-24 18:33:00,
2013-04-24 13:42:00,45.0,22.0,29.99,NNW,331,3.0,7.0,40,0.00,,,0.21,,2013-04-24 18:42:00,
2013-04-24 13:52:00,45.0,20.0,29.99,WNW,283,3.0,8.0,36,0.00,,,0.19,,2013-04-24 18:52:00,
2013-04-24 14:02:00,45.0,20.0,29.99,WSW,246,8.0,12.0,37,0.00,,,0.17,,2013-04-24 19:02:00,
2013-04-24 14:11:00,45.0,20.0,29.99,WSW,246,8.0,12.0,37,0.00,,,0.17,,2013-04-24 19:11:00,
2013-04-24 14:21:00,46.0,22.0,29.99,West,265,6.0,9.0,39,0.00,,,0.16,,2013-04-24 19:21:00,
2013-04-24 14:32:00,47.0,21.0,29.99,WNW,290,2.0,5.0,36,0.00,,,0.13,,2013-04-24 19:32:00,
2013-04-24 14:42:00,47.0,21.0,29.99,WNW,290,2.0,5.0,36,0.00,,,0.13,,2013-04-24 19:42:00,
2013-04-24 14:52:00,47.0,21.0,29.99,NW,309,3.0,11.0,36,0.00,,,0.11,,2013-04-24 19:52:00,
2013-04-24 15:02:00,47.0,19.0,29.99,West,270,10.0,15.0,33,0.00,,,0.09,,2013-04-24 20:02:00,
2013-04-24 15:11:00,47.0,19.0,29.99,West,270,10.0,15.0,33,0.00,,,0.09,,2013-04-24 20:11:00,
2013-04-24 15:22:00,47.0,19.0,29.99,West,270,10.0,15.0,33,0.00,,,0.09,,2013-04-24 20:22:00,
2013-04-24 15:32:00,48.0,21.0,29.98,West,273,10.0,10.0,34,0.00,,,0.06,,2013-04-24 20:32:00,
2013-04-24 15:42:00,48.0,21.0,29.98,West,273,10.0,10.0,34,0.00,,,0.06,,2013-04-24 20:42:00,
2013-04-24 15:52:00,48.0,21.0,29.98,West,273,10.0,10.0,34,0.00,,,0.06,,2013-04-24 20:52:00,
2013-04-24 16:02:00,48.0,18.0,29.98,West,279,6.0,14.0,30,0.00,,,0.05,,2013-04-24 21:02:00,
2013-04-24 16:11:00,48.0,18.0,29.98,West,279,6.0,14.0,30,0.00,,,0.05,,2013-04-24 21:11:00,
2013-04-24 16:21:00,49.0,19.0,29.98,West,263,8.0,14.0,30,0.00,,,0.03,,2013-04-24 21:21:00,
2013-04-24 16:33:00,49.0,19.0,29.98,West,263,8.0,14.0,30,0.00,,,0.03,,2013-04-24 21:33:00,
2013-04-24 16:42:00,49.0,19.0,29.98,West,263,8.0,14.0,30,0.00,,,0.03,,2013-04-24 21:42:00,
2013-04-24 16:52:00,50.0,21.0,29.98,WSW,254,8.0,9.0,31,0.00,,,0.02,,2013-04-24 21:52:00,
2013-04-24 17:03:00,49.0,20.0,29.98,WSW,254,8.0,9.0,31,0.00,,,0.01,,2013-04-24 22:03:00,
2013-04-24 17:12:00,49.0,20.0,29.98,WSW,254,8.0,9.0,31,0.00,,,0.01,,2013-04-24 22:12:00,
2013-04-24 17:22:00,49.0,20.0,29.98,WSW,254,8.0,9.0,31,0.00,,,0.01,,2013-04-24 22:22:00,
2013-04-24 17:33:00,50.0,21.0,29.98,WSW,250,11.0,12.0,32,0.00,,,0.00,,2013-04-24 22:33:00,
2013-04-24 17:42:00,50.0,21.0,29.98,WSW,250,11.0,12.0,32,0.00,,,0.00,,2013-04-24 22:42:00,
2013-04-24 17:52:00,50.0,21.0,29.98,WSW,250,11.0,12.0,32,0.00,,,0.00,,2013-04-24 22:52:00,
2013-04-24 18:02:00,50.0,20.0,29.98,West,259,11.0,11.0,30,0.00,,,0.00,,2013-04-24 23:02:00,
2013-04-24 18:12:00,50.0,20.0,29.98,West,259,11.0,11.0,30,0.00,,,0.00,,2013-04-24 23:12:00,
2013-04-24 18:21:00,50.0,23.0,29.98,West,275,8.0,10.0,34,0.00,,,0.00,,2013-04-24 23:21:00,
2013-04-24 18:32:00,50.0,23.0,29.98,West,275,8.0,10.0,34,0.00,,,0.00,,2013-04-24 23:32:00,
2013-04-24 18:42:00,50.0,23.0,29.98,West,275,8.0,10.0,34,0.00,,,0.00,,2013-04-24 23:42:00,
2013-04-24 18:51:00,50.0,23.0,29.98,West,275,8.0,10.0,34,0.00,,,0.00,,2013-04-24 23:51:00,
2013-04-24 19:32:00,49.0,21.0,29.98,West,263,7.0,9.0,33,0.00,,,0.00,,2013-04-25 00:32:00,
2013-04-24 19:42:00,49.0,21.0,29.98,West,263,7.0,9.0,33,0.00,,,0.00,,2013-04-25 00:42:00,
2013-04-24 19:52:00,49.0,20.0,29.98,WSW,255,5.0,6.0,31,0.00,,,0.00,,2013-04-25 00:52:00,
2013-04-24 20:01:00,49.0,25.0,29.98,WSW,241,4.0,5.0,38,0.00,,,0.00,,2013-04-25 01:01:00,
2013-04-24 20:11:00,49.0,25.0,29.98,WSW,241,4.0,5.0,38,0.00,,,0.00,,2013-04-25 01:11:00,
2013-04-24 20:23:00,49.0,25.0,29.98,WSW,241,4.0,5.0,38,0.00,,,0.00,,2013-04-25 01:23:00,
2013-04-24 20:32:00,48.0,24.0,29.99,WSW,251,5.0,8.0,39,0.00,,,0.00,,2013-04-25 01:32:00,
2013-04-24 20:42:00,48.0,24.0,29.99,WSW,251,5.0,8.0,39,0.00,,,0.00,,2013-04-25 01:42:00,
2013-04-24 20:52:00,47.0,24.0,30.00,SW,223,5.0,6.0,40,0.00,,,0.00,,2013-04-25 01:52:00,
2013-04-24 21:02:00,46.0,24.0,30.01,SW,225,4.0,8.0,42,0.00,,,0.00,,2013-04-25 02:02:00,
2013-04-24 21:11:00,46.0,24.0,30.01,SW,225,4.0,8.0,42,0.00,,,0.00,,2013-04-25 02:11:00,
2013-04-24 21:22:00,46.0,24.0,30.01,SW,225,4.0,8.0,42,0.00,,,0.00,,2013-04-25 02:22:00,
2013-04-24 21:32:00,46.0,26.0,30.01,SW,232,7.0,7.0,46,0.00,,,0.00,,2013-04-25 02:32:00,
2013-04-24 21:42:00,46.0,26.0,30.01,SW,232,7.0,7.0,46,0.00,,,0.00,,2013-04-25 02:42:00,
2013-04-24 21:52:00,46.0,26.0,30.01,SW,232,7.0,7.0,46,0.00,,,0.00,,2013-04-25 02:52:00,
2013-04-24 22:02:00,45.0,27.0,30.02,SW,233,4.0,7.0,48,0.00,,,0.00,,2013-04-25 03:02:00,
2013-04-24 22:11:00,45.0,27.0,30.02,SW,233,4.0,7.0,48,0.00,,,0.00,,2013-04-25 03:11:00,
2013-04-24 22:22:00,45.0,27.0,30.02,SW,222,4.0,6.0,48,0.00,,,0.00,,2013-04-25 03:22:00,
2013-04-24 22:33:00,45.0,27.0,30.02,SW,222,4.0,6.0,48,0.00,,,0.00,,2013-04-25 03:33:00,
2013-04-24 22:42:00,45.0,27.0,30.02,SW,222,4.0,6.0,48,0.00,,,0.00,,2013-04-25 03:42:00,
2013-04-24 22:52:00,44.0,27.0,30.01,SW,219,4.0,6.0,50,0.00,,,0.00,,2013-04-25 03:52:00,
2013-04-24 23:03:00,44.0,27.0,30.01,SW,226,4.0,8.0,50,0.00,,,0.00,,2013-04-25 04:03:00,
2013-04-24 23:12:00,44.0,27.0,30.01,SW,226,4.0,8.0,50,0.00,,,0.00,,2013-04-25 04:12:00,
2013-04-24 23:23:00,44.0,28.0,30.01,SW,230,3.0,6.0,52,0.00,,,0.00,,2013-04-25 04:23:00,
2013-04-24 23:32:00,44.0,28.0,30.01,SW,230,3.0,6.0,52,0.00,,,0.00,,2013-04-25 04:32:00,
2013-04-24 23:43:00,44.0,28.0,30.01,SW,230,3.0,6.0,52,0.00,,,0.00,,2013-04-25 04:43:00,
2013-04-24 23:52:00,44.0,28.0,30.01,SW,230,3.0,6.0,52,0.00,,,0.00,,2013-04-25 04:52:00,